Weather History for Guangzhou Baiyun Intl, GD

Change the Weather History Date:

Saturday, July 14, 2012

  Actual Average Record
Temperature  
Mean Temperature 89 °F -  
Max Temperature 98 °F 91 °F 100 °F (2007)
Min Temperature 80 °F 78 °F 75 °F (2001)
Cooling Degree Days 24    
Growing Degree Days 39 (Base 50)    
Moisture  
Dew Point 77 °F    
Average Humidity 68    
Maximum Humidity 89    
Minimum Humidity 44    
Precipitation  
Precipitation 0.00 in 0.29 in - ()
Sea Level Pressure  
Sea Level Pressure 29.64 in    
Wind  
Wind Speed 6 mph ()    
Max Wind Speed 11 mph    
Max Gust Speed 16 mph    
Visibility 7.2 miles    
Events      
Averages and records for this station are not official NWS values.
T = Trace of Precipitation, MM = Missing Value Source: Averaged Metar Reports

Daily Weather History Graph

Daily Weather History Graph

Search for Another Location

Airport:

Trip Planner

Search our weather history database for the weather conditions in past years. The results will help you decide how hot, cold, wet, or windy it might be!

Date:

Astronomy

Jul. 14, 2012 Rise Set
Actual Time 5:49 AM CST 7:16 PM CST
Civil Twilight 5:24 AM CST 7:40 PM CST
Nautical Twilight 4:54 AM CST 8:10 PM CST
Astronomical Twilight 4:23 AM CST 8:41 PM CST
Moon 1:36 AM CST (7/14) 3:12 PM CST (7/14)
Length of Visible Light 14h 16m
Length of Day
13h 26m
Waning Crescent, 22% of the Moon is Illuminated
Jul 14
Waning Crescent
Jul 19
New
Jul 26
First Quarter
Aug 2
Full
Aug 10
Last Quarter

Hourly Weather History & Observations

Time (CST) Temp. Heat Index Dew Point Humidity Pressure Visibility Wind Dir Wind Speed Gust Speed Precip Events Conditions
12:00 AM 86.0 °F 96.9 °F 77.0 °F 74% 29.68 in 6.2 mi SSE 6.7 mph - N/A   Mostly Cloudy
12:30 AM 84.2 °F 94.1 °F 77.0 °F 79% 29.68 in 6.2 mi South 6.7 mph - N/A   Mostly Cloudy
1:00 AM 84.2 °F 94.1 °F 77.0 °F 79% 29.65 in 6.2 mi South 6.7 mph - N/A   Mostly Cloudy
1:30 AM 86.0 °F 96.9 °F 77.0 °F 74% 29.65 in 6.2 mi South 6.7 mph - N/A   Mostly Cloudy
2:00 AM 82 °F - 76 °F 79% 29.66 in 11 mi South 6.7 mph - -   Mostly Cloudy
2:00 AM 84.2 °F 94.1 °F 77.0 °F 79% 29.65 in 6.2 mi SSE 4.5 mph - N/A   Mostly Cloudy
2:30 AM 84.2 °F 94.1 °F 77.0 °F 79% 29.65 in 6.2 mi SSW 4.5 mph - N/A   Mostly Cloudy
3:00 AM 84.2 °F 94.1 °F 77.0 °F 79% 29.65 in 6.2 mi SSW 4.5 mph - N/A   Mostly Cloudy
3:30 AM 84.2 °F 94.1 °F 77.0 °F 79% 29.65 in 6.2 mi SSW 6.7 mph - N/A   Mostly Cloudy
4:00 AM 82.4 °F 90.9 °F 77.0 °F 84% 29.65 in 6.2 mi Variable 2.2 mph - N/A   Mostly Cloudy
4:30 AM 84.2 °F 94.1 °F 77.0 °F 79% 29.65 in 6.2 mi SW 2.2 mph - N/A   Mostly Cloudy
5:00 AM 80 °F - 77 °F 88% 29.65 in 10 mi SSE 4.5 mph - -   Mostly Cloudy
5:00 AM 84.2 °F 96.1 °F 78.8 °F 84% 29.65 in 6.2 mi WSW 4.5 mph - N/A   Mostly Cloudy
5:30 AM 82.4 °F 90.9 °F 77.0 °F 84% 29.65 in 6.2 mi Variable 2.2 mph - N/A   Scattered Clouds
6:00 AM 82.4 °F 90.9 °F 77.0 °F 84% 29.65 in 6.2 mi SW 2.2 mph - N/A   Scattered Clouds
6:30 AM 82.4 °F 92.4 °F 78.8 °F 89% 29.65 in 6.2 mi SW 4.5 mph - N/A   Partly Cloudy
7:00 AM 84.2 °F 96.1 °F 78.8 °F 84% 29.68 in 6.2 mi Calm Calm - N/A   Partly Cloudy
7:30 AM 86.0 °F 96.9 °F 77.0 °F 74% 29.68 in 6.2 mi South 4.5 mph - N/A   Partly Cloudy
8:00 AM 84 °F - 76 °F 72% 29.68 in 14 mi SW 6.7 mph - -   Mostly Cloudy
8:00 AM 86.0 °F 96.9 °F 77.0 °F 74% 29.68 in 6.2 mi South 6.7 mph - N/A   Scattered Clouds
8:30 AM 86.0 °F 96.9 °F 77.0 °F 74% 29.68 in 6.2 mi SW 8.9 mph - N/A   Scattered Clouds
9:00 AM 87.8 °F 99.7 °F 77.0 °F 70% 29.68 in 6.2 mi SW 8.9 mph - N/A   Scattered Clouds
9:30 AM 89.6 °F 102.2 °F 77.0 °F 66% 29.68 in 6.2 mi SSW 8.9 mph - N/A   Scattered Clouds
10:00 AM 89.6 °F 102.2 °F 77.0 °F 66% 29.68 in 6.2 mi SW 11.2 mph - N/A   Scattered Clouds
10:30 AM 91.4 °F 105.1 °F 77.0 °F 63% 29.65 in 6.2 mi SW 8.9 mph - N/A   Scattered Clouds
11:00 AM 90 °F - 76 °F 55% 29.67 in 16 mi SSW 8.9 mph - -   Mostly Cloudy
11:00 AM 93.2 °F 107.2 °F 77.0 °F 59% 29.65 in 6.2 mi SW 11.2 mph - N/A   Mostly Cloudy
11:30 AM 93.2 °F 107.2 °F 77.0 °F 59% 29.65 in 6.2 mi WSW 8.9 mph - N/A   Mostly Cloudy
12:00 PM 95.0 °F 109.7 °F 77.0 °F 56% 29.65 in 6.2 mi WSW 11.2 mph - N/A   Mostly Cloudy
12:30 PM 95.0 °F 109.7 °F 77.0 °F 56% 29.65 in 6.2 mi WSW 8.9 mph - N/A   Mostly Cloudy
1:00 PM 95.0 °F 107.4 °F 75.2 °F 53% 29.62 in 6.2 mi WSW 11.2 mph - N/A   Mostly Cloudy
1:30 PM 96.8 °F 109.6 °F 75.2 °F 50% 29.62 in 6.2 mi WSW 11.2 mph - N/A   Mostly Cloudy
2:00 PM 92 °F - 74 °F 47% 29.61 in 17 mi SW 4.5 mph - -   Mostly Cloudy
2:00 PM 96.8 °F 107.3 °F 73.4 °F 47% 29.59 in 6.2 mi WSW 8.9 mph - N/A   Mostly Cloudy
2:30 PM 96.8 °F 107.3 °F 73.4 °F 47% 29.59 in 6.2 mi WSW 11.2 mph - N/A   Mostly Cloudy
3:00 PM 96.8 °F 107.3 °F 73.4 °F 47% 29.59 in 6.2 mi WSW 8.9 mph - N/A   Mostly Cloudy
3:30 PM 98.6 °F 109.2 °F 73.4 °F 44% 29.56 in 6.2 mi SW 8.9 mph - N/A   Mostly Cloudy
4:00 PM 98.6 °F 109.2 °F 73.4 °F 44% 29.56 in 6.2 mi WSW 4.5 mph 15.7 mph N/A   Mostly Cloudy
5:00 PM 93 °F - 76 °F 49% 29.57 in 14 mi SSW 11.2 mph - -   Mostly Cloudy
5:00 PM 98.6 °F 109.2 °F 73.4 °F 44% 29.56 in 6.2 mi SW 4.5 mph - N/A   Scattered Clouds
5:30 PM 96.8 °F 109.6 °F 75.2 °F 50% 29.56 in 6.2 mi SE 8.9 mph - N/A   Scattered Clouds
6:00 PM 93.2 °F 110.2 °F 78.8 °F 63% 29.56 in 6.2 mi SSE 11.2 mph - N/A   Mostly Cloudy
6:30 PM 91.4 °F 107.2 °F 78.8 °F 66% 29.56 in 6.2 mi SE 8.9 mph - N/A   Partly Cloudy
7:00 PM 91.4 °F 107.2 °F 78.8 °F 66% 29.59 in 6.2 mi SSE 8.9 mph - N/A   Partly Cloudy
7:30 PM 91.4 °F 107.2 °F 78.8 °F 66% 29.59 in 6.2 mi SSE 8.9 mph - N/A   Partly Cloudy
8:00 PM 86 °F - 78 °F 73% 29.64 in 13 mi South 6.7 mph - -   Partly Cloudy
8:00 PM 91.4 °F 105.1 °F 77.0 °F 63% 29.62 in 6.2 mi SSE 8.9 mph - N/A   Partly Cloudy
8:30 PM 89.6 °F 104.7 °F 78.8 °F 70% 29.62 in 6.2 mi SSE 6.7 mph - N/A   Partly Cloudy
9:00 PM 87.8 °F 104.9 °F 80.6 °F 79% 29.62 in 6.2 mi SE 4.5 mph - N/A   Partly Cloudy
9:30 PM 89.6 °F 108.2 °F 80.6 °F 75% 29.65 in 6.2 mi SSE 8.9 mph - N/A   Scattered Clouds
10:00 PM 89.6 °F 104.7 °F 78.8 °F 70% 29.65 in 6.2 mi SSE 6.7 mph - N/A   Scattered Clouds
10:30 PM 87.8 °F 102.5 °F 78.8 °F 75% 29.68 in 6.2 mi South 8.9 mph - N/A   Scattered Clouds
11:00 PM 85 °F - 77 °F 70% 29.69 in 11 mi South 6.7 mph - -   Mostly Cloudy
11:00 PM 87.8 °F 102.5 °F 78.8 °F 75% 29.68 in 6.2 mi SSE 8.9 mph - N/A   Scattered Clouds
11:30 PM 87.8 °F 102.5 °F 78.8 °F 75% 29.68 in 6.2 mi SSE 6.7 mph - N/A   Mostly Cloudy